TimeCST,TemperatureF,Dew PointF,Humidity,Sea Level PressureIn,VisibilityMPH,Wind Direction,Wind SpeedMPH,Gust SpeedMPH,PrecipitationIn,Events,Conditions,WindDirDegrees,DateUTC
12:07 AM,33.8,30.2,87,30.06,5.0,WNW,5.8,-,N/A,,Overcast,290,2013-03-01 06:07:00
12:53 AM,33.1,30.9,92,30.06,5.0,WNW,5.8,-,0.00,,Overcast,300,2013-03-01 06:53:00
1:53 AM,33.8,30.2,87,30.06,2.5,WNW,5.8,-,N/A,Snow,Light Snow,300,2013-03-01 07:53:00
2:17 AM,32.0,30.2,93,30.06,1.8,WNW,4.6,-,0.00,Snow,Light Snow,290,2013-03-01 08:17:00
2:43 AM,32.0,30.2,93,30.05,1.2,WNW,6.9,-,0.01,Snow,Light Snow,290,2013-03-01 08:43:00
2:53 AM,32.0,30.9,96,30.06,1.2,WNW,4.6,-,0.01,Snow,Light Snow,290,2013-03-01 08:53:00
3:53 AM,32.0,30.2,93,30.05,2.5,West,3.5,-,N/A,Snow,Light Snow,280,2013-03-01 09:53:00
4:35 AM,32.0,30.2,93,30.05,2.5,WNW,5.8,-,0.00,Snow,Light Snow,290,2013-03-01 10:35:00
4:53 AM,32.0,30.0,92,30.05,2.0,WNW,4.6,-,0.00,Snow,Light Snow,290,2013-03-01 10:53:00
5:12 AM,32.0,30.2,93,30.05,1.8,WNW,4.6,-,0.01,Snow,Light Snow,290,2013-03-01 11:12:00
5:21 AM,32.0,30.2,93,30.05,2.0,WNW,10.4,20.7,0.01,Snow,Light Snow,290,2013-03-01 11:21:00
5:34 AM,32.0,30.2,93,30.05,3.0,West,4.6,-,0.01,,Overcast,280,2013-03-01 11:34:00
5:50 AM,32.0,30.2,93,30.05,2.5,WNW,4.6,-,0.01,Snow,Light Snow,300,2013-03-01 11:50:00
5:53 AM,32.0,30.2,93,30.05,2.5,WNW,4.6,-,N/A,Snow,Light Snow,300,2013-03-01 11:53:00
6:46 AM,32.0,30.2,93,30.06,1.8,West,5.8,-,0.00,Snow,Light Snow,280,2013-03-01 12:46:00
6:53 AM,32.0,30.0,92,30.07,1.8,West,5.8,-,0.00,Snow,Light Snow,280,2013-03-01 12:53:00
7:21 AM,32.0,30.2,93,30.07,2.0,WNW,5.8,-,0.01,Snow,Light Snow,290,2013-03-01 13:21:00
7:41 AM,32.0,30.2,93,30.07,1.5,WNW,4.6,-,0.01,Snow,Light Snow,300,2013-03-01 13:41:00
7:53 AM,32.0,30.9,96,30.09,1.2,NW,5.8,-,0.01,Snow,Light Snow,310,2013-03-01 13:53:00
8:53 AM,33.1,30.9,92,30.09,1.0,NW,6.9,-,0.01,Snow,Light Snow,310,2013-03-01 14:53:00
9:53 AM,33.1,30.9,92,30.09,1.5,NW,5.8,-,0.01,Snow,Light Snow,320,2013-03-01 15:53:00
10:15 AM,33.8,30.2,87,30.09,2.5,WNW,4.6,-,0.00,Snow,Light Snow,300,2013-03-01 16:15:00
10:53 AM,34.0,32.0,92,30.10,2.0,NNW,5.8,-,0.01,Snow,Light Snow,330,2013-03-01 16:53:00
11:22 AM,35.6,32.0,87,30.09,3.0,NW,8.1,-,0.01,Snow,Light Snow,320,2013-03-01 17:22:00
11:34 AM,35.6,32.0,87,30.09,2.5,NNW,8.1,-,0.01,Snow,Light Snow,330,2013-03-01 17:34:00
11:44 AM,35.6,33.8,93,30.09,3.0,NW,5.8,-,0.01,Snow,Light Snow,320,2013-03-01 17:44:00
11:53 AM,36.0,32.0,86,30.10,4.0,NW,6.9,-,0.01,Snow,Light Snow,310,2013-03-01 17:53:00
12:02 PM,35.6,32.0,87,30.09,5.0,NW,5.8,-,0.00,Snow,Light Snow,320,2013-03-01 18:02:00
12:21 PM,35.6,32.0,87,30.08,7.0,NW,9.2,-,0.00,Snow,Light Snow,310,2013-03-01 18:21:00
12:28 PM,35.6,32.0,87,30.08,3.0,NW,8.1,-,0.00,Snow,Light Snow,310,2013-03-01 18:28:00
12:31 PM,35.6,32.0,87,30.08,2.5,NW,6.9,-,N/A,Snow,Light Snow,310,2013-03-01 18:31:00
12:35 PM,35.6,32.0,87,30.08,3.0,NW,6.9,-,0.00,Snow,Light Snow,310,2013-03-01 18:35:00
12:53 PM,36.0,33.1,89,30.08,5.0,Variable,6.9,-,0.00,Snow,Light Snow,0,2013-03-01 18:53:00
1:00 PM,35.6,33.8,93,30.07,6.0,NW,9.2,-,0.00,Snow,Light Snow,310,2013-03-01 19:00:00
1:09 PM,35.6,32.0,87,30.07,5.0,NW,8.1,-,0.01,Snow,Light Snow,310,2013-03-01 19:09:00
1:53 PM,36.0,33.1,89,30.07,2.5,WNW,9.2,-,0.01,Snow,Light Snow,300,2013-03-01 19:53:00
2:00 PM,37.4,33.8,87,30.06,6.0,NW,6.9,-,0.00,Snow,Light Snow,310,2013-03-01 20:00:00
2:11 PM,35.6,33.8,93,30.06,4.0,WNW,9.2,-,0.00,Snow,Light Snow,300,2013-03-01 20:11:00
2:29 PM,35.6,33.8,93,30.06,7.0,NW,11.5,16.1,0.00,,Overcast,310,2013-03-01 20:29:00
2:50 PM,37.4,33.8,87,30.06,10.0,NW,8.1,-,0.00,,Overcast,310,2013-03-01 20:50:00
2:53 PM,37.0,33.1,86,30.07,10.0,NW,10.4,-,0.00,,Overcast,310,2013-03-01 20:53:00
3:02 PM,37.4,32.0,81,30.06,10.0,WNW,12.7,-,N/A,,Overcast,300,2013-03-01 21:02:00
3:27 PM,35.6,32.0,87,30.06,7.0,NW,9.2,-,0.00,,Overcast,320,2013-03-01 21:27:00
3:53 PM,36.0,33.1,89,30.08,9.0,WNW,8.1,-,0.00,,Overcast,300,2013-03-01 21:53:00
4:12 PM,35.6,32.0,87,30.07,10.0,NW,9.2,-,N/A,,Overcast,310,2013-03-01 22:12:00
4:20 PM,35.6,32.0,87,30.07,10.0,WNW,9.2,-,N/A,,Overcast,300,2013-03-01 22:20:00
4:26 PM,35.6,33.8,93,30.07,10.0,WNW,8.1,-,N/A,,Overcast,300,2013-03-01 22:26:00
4:40 PM,35.6,32.0,87,30.07,10.0,WNW,6.9,-,N/A,,Overcast,300,2013-03-01 22:40:00
4:53 PM,35.1,32.0,89,30.09,10.0,NW,11.5,-,N/A,,Overcast,310,2013-03-01 22:53:00
5:20 PM,33.8,30.2,87,30.08,7.0,NW,6.9,-,0.00,Snow,Light Snow,320,2013-03-01 23:20:00
5:53 PM,34.0,30.9,89,30.10,10.0,NW,6.9,-,0.00,,Overcast,310,2013-03-01 23:53:00
6:19 PM,33.8,30.2,87,30.10,9.0,NW,6.9,-,N/A,,Overcast,310,2013-03-02 00:19:00
6:33 PM,33.8,30.2,87,30.10,7.0,NW,9.2,-,0.00,Snow,Light Snow,310,2013-03-02 00:33:00
6:53 PM,33.1,30.9,92,30.11,6.0,NW,6.9,-,0.00,Snow,Light Snow,310,2013-03-02 00:53:00
7:01 PM,33.8,30.2,87,30.10,5.0,NW,6.9,-,N/A,Snow,Light Snow,310,2013-03-02 01:01:00
7:40 PM,33.8,30.2,87,30.11,4.0,NNW,8.1,-,0.01,Snow,Light Snow,330,2013-03-02 01:40:00
7:53 PM,33.1,30.0,89,30.12,4.0,NNW,5.8,-,0.01,Snow,Light Snow,330,2013-03-02 01:53:00
8:36 PM,33.8,30.2,87,30.12,5.0,North,11.5,-,0.00,Snow,Light Snow,350,2013-03-02 02:36:00
8:42 PM,33.8,28.4,81,30.12,7.0,North,10.4,-,0.00,,Overcast,350,2013-03-02 02:42:00
8:51 PM,33.8,28.4,81,30.12,9.0,NNW,9.2,-,0.00,,Overcast,340,2013-03-02 02:51:00
8:53 PM,33.1,28.9,85,30.13,9.0,NNW,9.2,-,0.00,,Overcast,340,2013-03-02 02:53:00
9:21 PM,32.0,28.4,87,30.13,4.0,North,11.5,-,0.00,Snow,Light Snow,350,2013-03-02 03:21:00
9:42 PM,32.0,28.4,87,30.12,6.0,North,8.1,-,0.00,Snow,Light Snow,350,2013-03-02 03:42:00
9:49 PM,32.0,28.4,87,30.12,9.0,North,10.4,-,0.00,,Overcast,350,2013-03-02 03:49:00
9:53 PM,32.0,28.0,85,30.13,10.0,North,9.2,-,0.00,,Overcast,350,2013-03-02 03:53:00
10:06 PM,32.0,28.4,87,30.12,10.0,NNW,10.4,-,N/A,,Overcast,340,2013-03-02 04:06:00
10:37 PM,32.0,28.4,87,30.12,7.0,NNW,9.2,-,N/A,,Overcast,340,2013-03-02 04:37:00
10:53 PM,32.0,28.0,85,30.14,5.0,NW,6.9,-,0.00,Snow,Light Snow,320,2013-03-02 04:53:00
11:53 PM,30.9,28.0,89,30.13,6.0,NW,5.8,-,0.00,Snow,Light Snow,320,2013-03-02 05:53:00